Location: Newark
(40.9833°N, 0.0333°W)
Time: 01:08:58
(UTC+00:00)

Altair - Pass Details

Date: 27 October 2020
Orbit: 1502 x 1682 km, 47.2° (Epoch: 02 December)

Event Time Altitude Azimuth Distance (km) Brightness Sun altitude
Rises 10:26:48 0° 295° (WNW) 4,755 9.7 33.1°
Reaches altitude 10° 10:29:50 10° 296° (WNW) 3,793 9.3 33.3°
Maximum altitude 10:39:35 86° 26° (NNE) 1,637 8.2 34.0°
Drops below altitude 10° 10:49:40 10° 116° (ESE) 3,915 10.3 34.6°
Sets 10:52:51 0° 117° (ESE) 4,914 10.7 34.7°
